Flag for Micronesia Weather past 2 weeks in Palikir, Ponape, Micronesia

Now
83 °F

More clouds than sun.


Feels Like: 94 °F
Forecast: 74 / 88 °F
Wind: 3 mph from South

Location: Pohnpei

Current Time: Sep 18, 2014 at 6:44:59 PM

Latest Report: Sep 18, 2014 at 5:55 PM


Visibility: 15 mi

Pressure: 29.81 "Hg

Humidity: 88%

Dew point: 79 °F

Location of PalikirLocation

Historic Weather in Palikir — Graph

°F

Palikir temperature yesterday

Maximum temperature yesterday: 88 °F (at 11:53 AM)
Minimum temperature yesterday: 76 °F (at 5:55 AM)
Average temperature yesterday: 81 °F

Past Weeks' High & Low Weather Summary

 TemperatureHumidityPressure
High92 °F (Sep 11, 10:54 AM)100% (Sep 6, 1:53 AM)29.92 "Hg (Sep 6, 1:53 AM)
Low73 °F (Sep 10, 5:52 AM)61% (Sep 14, 10:57 AM)29.73 "Hg (Sep 4, 3:52 PM)
Average81 °F87%29.84 "Hg
* Reported Sep 3 5:51 PM — Sep 18 5:55 PM, Palikir, Weather by CustomWeather, © 2014

Note: Actual official high and low records may vary slightly from our data, if they occured in-between our weather recording intervals... More about our weather records

Advertising

Palikir weather history for previous 24 hours

 ConditionsComfort  
Time TempWeatherWind HumidityBarometerVisibility
5:55 PM
Sep 18
83 °FMore clouds than sun.3 mph88%29.81 "Hg15 mi
4:54 PM84 °FCloudy.6 mph84%29.80 "Hg15 mi
3:53 PM85 °FBroken clouds.2 mph81%29.79 "Hg15 mi
2:55 PM86 °FBroken clouds.2 mph76%29.80 "Hg15 mi
1:55 PM86 °FBroken clouds.6 mph77%29.80 "Hg15 mi
12:55 PM86 °FBroken clouds.3 mph76%29.83 "Hg15 mi
11:52 AM87 °FScattered clouds.3 mph73%29.85 "Hg15 mi
10:56 AM89 °FPartly sunny.6 mph70%29.88 "Hg15 mi
9:54 AM86 °FScattered clouds.3 mph78%29.89 "Hg15 mi
8:50 AM87 °FPassing clouds.6 mph73%29.89 "Hg15 mi
7:50 AM82 °FScattered clouds.3 mph82%29.88 "Hg15 mi
6:50 AM76 °FScattered clouds.3 mph94%29.87 "Hg15 mi
5:50 AM75 °FPassing clouds.3 mph95%29.85 "Hg15 mi
4:50 AM76 °FPassing clouds.5 mph92%29.84 "Hg15 mi
3:50 AM75 °FPartly cloudy.3 mph93%29.83 "Hg15 mi
2:50 AM76 °FPartly cloudy.3 mph94%29.83 "Hg15 mi
1:50 AM76 °FPartly cloudy.6 mph96%29.85 "Hg15 mi
12:50 AM76 °FPartly cloudy.3 mph94%29.85 "Hg15 mi
11:54 PM
Sep 17
77 °FPartly cloudy.5 mph92%29.87 "Hg15 mi
10:53 PM78 °FPassing clouds.5 mph90%29.88 "Hg15 mi
9:50 PM78 °FPassing clouds.3 mph92%29.88 "Hg15 mi
8:52 PM78 °FOvercast.3 mph95%29.88 "Hg15 mi
7:52 PM80 °FSprinkles. Overcast.3 mph94%29.87 "Hg15 mi
6:52 PM81 °FMostly cloudy.3 mph92%29.85 "Hg15 mi
Weather by CustomWeather, © 2014

See weather overviewHow to use our weather pages